Theta_e
350 350 350 349 348 348 347 347 346 345 345 346 346 346 347 346 346 346 345 346 347 344 341 339 339 339 341 342 342 343 343 343 342 343 342 339 336 336 339 342 344 343 340 336 334 331 330 328 325 322 321 319 319 322 324 323 321 319 319 320 321 323 326
349 350 350 350 350 349 348 347 346 346 345 346 345 346 346 346 345 346 345 344 345 343 340 338 336 336 336 338 340 342 342 342 340 339 338 335 333 334 338 340 342 341 336 332 330 328 325 323 321 322 322 320 318 319 321 321 320 318 318 319 321 324 326
348 349 350 349 350 349 348 346 345 346 345 345 346 346 346 346 345 344 343 342 341 341 339 336 334 334 334 336 338 339 342 341 338 336 334 331 331 334 337 338 340 339 333 330 329 326 322 321 321 322 323 321 318 317 317 317 317 317 317 319 321 324 326
345 346 348 347 347 347 346 345 345 345 346 346 346 346 345 345 344 343 342 340 340 339 337 333 332 332 333 334 335 337 340 339 337 333 330 329 331 335 340 341 339 336 331 328 327 324 320 319 320 321 321 319 317 316 316 316 315 316 317 319 321 323 324
344 345 346 346 346 347 346 346 345 346 346 347 346 345 344 343 343 343 342 341 340 338 335 332 333 333 332 333 335 335 337 337 335 331 328 328 331 337 342 341 337 332 327 325 324 321 318 318 318 319 318 316 316 316 316 315 316 316 317 318 319 320 321
345 344 345 345 345 347 346 346 346 347 347 346 346 346 345 345 344 343 342 341 340 338 336 336 335 332 330 332 332 333 333 334 332 328 325 327 331 338 344 343 340 336 330 324 323 320 318 317 318 318 317 315 315 316 317 316 316 317 317 318 319 319 320
342 343 342 343 344 345 345 345 346 347 347 346 347 346 346 346 344 343 342 341 340 339 338 339 337 333 330 330 329 330 331 329 327 324 324 327 332 340 347 347 345 342 333 325 321 318 317 317 317 317 316 316 317 317 317 318 318 318 319 320 321 322 321
340 341 341 342 343 343 344 345 346 347 347 347 347 346 347 347 345 344 342 341 341 341 342 342 339 335 331 329 328 328 328 328 326 324 324 328 335 344 349 348 347 344 334 325 320 318 317 316 317 317 317 317 318 318 318 319 320 320 321 322 323 323 323
339 339 339 340 342 342 344 345 346 346 347 347 346 346 348 347 346 346 343 342 342 342 341 342 341 338 335 333 330 327 329 331 329 328 328 332 338 344 347 344 345 344 335 327 324 321 318 317 318 319 319 318 319 320 320 321 321 321 322 322 323 323 323
339 339 339 340 341 343 345 344 345 346 346 347 347 346 348 347 347 347 346 345 343 342 341 341 342 342 340 339 336 335 335 332 328 327 328 330 334 341 344 341 342 344 337 327 323 321 318 318 321 323 322 321 320 321 322 322 321 320 321 321 322 322 323
340 339 339 340 341 343 344 344 345 345 346 347 347 347 348 348 349 348 347 346 345 345 344 343 344 344 343 345 345 344 342 332 325 323 324 327 329 334 341 341 340 343 337 325 319 320 320 319 320 322 322 321 321 323 323 323 321 321 321 321 320 320 321
341 341 339 340 341 342 343 343 344 345 345 346 346 348 348 348 349 349 348 348 346 346 346 345 347 346 345 347 348 348 346 335 326 324 325 325 326 333 340 339 339 342 335 323 320 321 322 321 320 320 321 323 323 323 323 322 320 321 323 322 320 319 321
341 341 340 340 340 342 344 344 344 345 346 345 347 348 348 347 349 349 349 348 347 347 347 347 348 347 347 349 349 349 348 344 336 327 324 324 327 337 342 338 340 342 333 322 320 320 321 322 321 319 321 325 326 325 324 322 321 322 324 323 321 320 322
341 341 341 341 340 342 343 342 344 345 345 346 347 347 348 348 349 349 348 348 348 348 349 348 347 349 350 351 352 350 351 352 347 335 326 324 324 332 339 343 345 342 330 322 320 321 323 324 322 319 320 325 329 328 326 324 322 322 324 323 322 320 322
341 342 341 341 341 342 342 342 343 343 344 345 347 348 349 348 349 348 347 347 349 349 349 349 349 350 351 353 354 354 354 354 352 345 334 327 322 324 333 342 345 338 327 322 321 322 324 325 323 322 321 325 329 329 327 326 323 322 323 323 322 321 322
342 342 342 343 342 342 342 342 342 343 343 344 345 346 347 346 346 345 346 347 349 348 349 350 350 351 353 355 356 356 356 354 353 351 344 335 327 322 324 332 338 337 332 326 322 322 324 325 325 324 322 324 327 329 329 328 324 323 324 324 323 323 323
342 343 343 343 342 343 342 343 342 343 343 344 344 344 345 345 343 344 345 348 349 351 352 352 353 354 356 357 357 356 356 354 352 351 349 343 337 330 327 327 329 334 338 333 325 323 327 328 326 323 323 325 326 328 329 329 327 326 326 327 326 325 326
341 341 342 341 342 342 343 342 342 343 342 342 342 344 343 344 345 345 348 352 352 354 355 355 356 357 357 358 357 356 355 354 353 350 347 345 342 338 336 330 323 328 336 337 332 327 326 328 327 327 330 329 325 328 331 330 329 329 328 330 329 328 328
342 343 344 344 344 344 343 343 341 341 342 343 342 343 343 344 346 347 350 352 353 354 355 356 357 357 357 357 356 357 355 353 352 349 345 344 343 342 341 336 330 331 334 335 336 333 327 327 330 333 336 332 325 328 331 329 327 327 329 331 330 328 328
343 344 344 344 344 344 343 343 344 343 343 344 344 344 345 345 347 348 348 349 351 353 354 355 356 356 357 356 356 356 354 352 351 347 343 344 344 344 344 342 340 338 334 331 333 332 328 330 332 333 337 336 329 326 326 323 322 326 331 333 332 330 331
339 341 341 343 343 344 344 344 344 344 344 345 345 344 344 343 342 342 342 343 347 350 352 353 355 356 356 356 356 355 353 353 350 347 345 345 344 343 343 342 342 341 339 335 335 333 330 332 333 333 337 338 330 322 321 320 322 329 335 335 334 333 333
337 338 339 342 342 344 344 343 344 345 345 344 344 341 337 335 334 333 333 333 335 340 345 348 352 354 354 355 355 354 354 353 351 350 348 346 345 344 343 341 341 341 341 339 339 335 329 328 332 336 338 336 327 320 321 322 326 333 336 334 334 334 333
337 336 337 341 342 343 344 343 341 342 342 340 337 334 331 330 330 329 328 329 330 332 336 340 344 347 350 352 353 354 354 353 352 351 349 348 347 346 341 339 338 338 338 337 337 334 328 328 333 336 334 330 324 321 321 324 329 335 335 333 332 332 331
336 337 338 340 343 345 344 340 337 336 336 334 332 330 329 329 329 329 328 329 329 331 333 336 338 342 345 347 350 351 352 352 352 351 350 350 348 342 335 333 333 333 334 333 333 331 328 329 333 332 327 323 322 322 322 323 328 331 332 333 332 330 330
341 341 342 342 343 344 341 335 333 333 333 332 330 329 330 330 329 329 329 328 328 329 332 333 335 337 340 343 345 346 349 350 350 350 350 347 341 333 329 328 327 328 329 330 330 329 329 329 331 328 323 321 323 323 322 323 326 328 331 331 329 327 326
345 344 343 341 339 338 335 332 331 331 332 331 331 330 331 330 331 331 330 329 329 329 330 332 333 335 337 339 341 343 346 347 347 348 346 340 333 328 326 327 327 327 328 329 328 327 327 328 328 324 321 322 323 323 323 325 327 328 327 327 325 324 323
345 344 342 339 335 333 331 331 331 332 332 331 331 331 331 331 331 332 332 332 331 330 330 331 333 335 335 337 340 342 345 345 346 345 339 333 329 328 327 328 327 327 327 328 327 324 324 324 323 322 321 322 323 324 324 325 326 326 325 324 324 324 323
340 339 336 335 335 333 333 334 334 333 332 331 331 330 329 330 330 332 332 333 332 332 331 331 334 335 335 337 339 341 342 344 343 340 335 330 329 329 329 327 325 324 325 325 324 322 321 322 322 323 323 323 324 324 324 325 326 326 325 324 324 324 324
340 340 338 337 337 336 336 335 334 332 331 331 330 330 329 329 329 329 330 332 334 334 332 332 333 333 334 336 337 338 340 341 340 337 334 331 331 332 330 326 323 323 323 322 323 322 322 323 324 325 324 324 324 324 325 326 327 325 324 324 324 325 325
336 336 335 334 333 333 333 332 331 330 330 330 330 330 329 329 329 329 329 330 332 332 333 334 331 331 332 335 336 337 339 340 338 335 335 334 333 333 330 325 321 322 321 321 323 325 325 326 326 325 323 323 324 325 326 327 326 325 325 325 325 325 324
331 331 330 330 329 330 329 329 329 329 329 330 329 329 330 329 329 329 330 329 330 330 332 333 332 332 334 336 337 338 339 338 337 336 336 335 334 333 332 327 325 325 325 324 326 327 328 327 324 323 323 324 325 327 327 326 326 326 326 325 324 325 325
331 330 331 330 330 330 330 330 329 329 329 330 330 330 330 330 330 330 329 330 331 333 334 335 336 337 338 338 339 339 339 338 337 336 336 335 334 333 333 331 330 331 330 329 330 329 328 325 323 322 323 324 325 325 325 326 328 327 326 325 325 325 322
331 331 331 331 331 332 332 331 331 331 331 331 331 331 331 331 331 331 332 335 337 339 340 339 340 340 340 339 339 339 338 338 337 336 335 334 333 333 332 331 331 330 330 329 329 328 326 323 322 322 322 321 321 321 324 326 327 326 325 325 325 322 319
331 331 331 332 332 333 334 334 334 333 333 333 333 333 333 334 335 335 337 339 341 342 343 343 342 342 341 340 339 338 338 337 336 335 334 334 333 333 332 331 330 330 330 329 327 326 323 322 321 320 320 318 319 322 324 325 325 324 325 325 322 319 318
329 329 331 332 332 332 333 334 334 333 333 333 334 335 336 336 336 337 339 342 343 343 344 344 342 341 339 338 338 338 337 336 335 335 334 333 333 333 333 331 330 330 328 326 325 323 322 321 320 320 319 319 321 324 325 324 324 324 324 322 319 318 318
327 328 329 330 331 331 332 333 333 333 333 333 334 334 335 335 335 336 339 341 342 343 343 342 340 339 337 337 336 336 335 335 334 334 333 332 332 333 332 331 330 328 326 323 322 322 321 320 319 318 319 321 324 325 325 324 324 324 322 320 319 318 318
326 327 328 329 331 331 332 334 334 334 333 333 333 333 333 334 335 336 338 340 341 342 341 339 337 335 334 333 333 333 333 333 332 332 332 331 331 332 331 330 328 327 324 322 321 321 321 320 319 320 322 324 325 325 324 324 324 322 320 319 319 318 318
327 328 331 333 333 333 333 334 333 334 334 333 333 333 334 334 336 337 339 340 341 340 339 336 334 332 331 331 332 332 331 331 331 331 330 329 330 331 329 326 325 324 323 321 321 321 320 320 321 323 324 325 326 325 324 324 323 321 320 320 319 319 319
Wind_Speed
32 38 43 47 49 49 48 47 44 43 41 40 40 39 39 38 37 37 36 36 37 36 35 35 35 36 35 35 34 32 31 30 30 30 28 26 23 20 18 17 16 16 15 15 15 14 14 14 14 12 9 8 9 10 10 9 8 7 7 7 7 8 8
31 34 39 46 50 50 50 48 45 45 44 41 41 40 40 39 38 38 37 37 38 37 36 37 37 37 37 36 35 33 32 31 31 31 29 26 23 20 18 17 17 16 16 15 14 14 14 14 14 12 10 9 9 10 10 10 9 8 8 9 9 10 10
33 36 41 48 52 52 51 49 47 47 46 44 42 41 41 40 38 38 38 38 38 37 37 38 39 39 38 38 37 35 33 32 32 32 30 28 24 21 19 18 18 17 16 16 15 15 15 15 14 12 10 9 10 10 10 11 11 10 10 10 11 12 12
37 40 44 49 52 53 52 50 49 49 48 46 43 40 39 39 38 38 39 39 39 39 39 40 40 40 40 39 38 36 35 34 34 33 31 28 25 23 21 20 19 18 18 18 17 16 16 16 15 13 12 11 11 12 12 12 12 11 11 12 12 13 13
35 38 42 46 49 52 53 52 52 51 50 48 45 41 38 38 38 39 40 40 40 40 40 40 41 42 42 41 39 38 36 35 35 34 32 29 27 25 24 22 21 20 19 18 18 17 17 17 16 15 14 13 13 13 13 13 13 12 12 13 13 12 12
29 35 40 43 47 49 51 53 53 53 51 48 46 43 39 38 39 40 41 41 42 42 41 41 42 42 42 41 40 39 37 36 36 35 33 31 29 27 26 24 22 20 19 18 18 18 17 17 16 15 15 15 15 15 15 14 14 14 14 13 13 12 12
29 35 39 41 44 46 48 50 52 53 52 49 46 44 42 42 41 41 42 44 44 44 43 43 43 42 43 43 42 41 39 38 37 36 34 32 30 29 26 24 23 20 18 17 17 17 17 17 17 16 16 15 15 16 16 16 16 15 15 14 13 12 12
27 33 37 40 42 43 45 47 49 50 50 49 48 47 46 46 44 42 43 44 45 45 44 44 43 43 44 44 43 43 41 39 38 37 35 33 32 29 26 24 23 20 18 18 17 16 17 17 18 17 16 16 16 16 16 17 17 16 15 14 12 12 12
23 28 33 36 38 41 42 44 46 46 46 46 47 48 48 48 48 46 44 44 44 45 45 44 44 44 45 44 43 43 42 40 38 37 36 35 34 31 26 24 23 22 20 18 16 15 16 17 18 18 17 16 16 17 17 17 17 16 14 13 12 12 13
20 24 29 32 35 38 40 41 42 42 43 43 44 45 47 48 49 48 46 45 45 45 44 44 44 45 45 44 43 44 44 41 38 37 38 38 38 34 30 26 25 24 21 17 15 16 17 18 18 18 18 17 18 18 18 18 17 16 14 13 12 13 13
18 21 27 31 34 36 38 38 39 39 40 39 40 42 44 47 49 49 48 48 47 46 45 44 44 45 45 45 46 48 47 43 41 41 41 42 42 39 33 29 27 25 22 19 18 18 19 19 19 19 20 20 20 19 19 19 18 16 14 13 13 13 14
18 21 27 30 33 35 35 36 37 37 37 36 37 39 41 44 46 47 48 48 47 47 46 46 46 47 47 47 48 51 50 47 46 45 44 45 46 42 36 32 29 26 23 20 19 20 20 20 21 22 23 22 22 21 20 19 18 16 15 14 13 14 14
19 22 27 29 31 32 33 34 35 36 35 35 36 38 38 40 41 43 45 45 45 47 47 47 48 49 49 49 51 53 52 50 48 47 48 49 48 42 36 33 32 29 24 20 19 17 17 20 24 24 24 24 24 23 22 21 19 18 17 17 15 14 15
20 23 26 28 30 30 31 33 34 35 35 35 36 37 37 38 38 39 40 40 41 44 45 46 48 49 49 50 52 53 52 51 49 49 51 52 50 44 37 33 35 32 26 21 18 17 22 27 28 27 25 25 26 25 23 22 21 19 19 18 16 15 16
22 23 26 29 30 30 32 34 34 34 34 34 35 36 35 36 36 36 36 36 37 39 41 43 44 46 47 49 51 51 50 50 48 47 51 53 53 49 41 37 37 34 30 26 22 25 37 38 30 28 27 25 27 26 25 23 22 20 19 18 17 16 16
25 26 28 30 30 32 34 34 32 32 32 33 33 33 33 32 31 31 31 32 34 35 37 39 39 41 43 45 47 48 48 48 45 45 48 51 54 53 48 45 41 35 36 37 32 34 42 38 29 28 27 25 26 26 25 24 22 21 20 19 18 18 17
26 28 29 29 31 34 35 33 31 31 31 31 31 30 29 28 26 27 28 30 32 33 35 37 38 38 40 41 43 44 43 43 43 43 44 46 49 50 47 46 41 36 37 39 38 38 38 32 29 29 26 24 25 25 24 24 22 21 20 19 19 19 19
28 30 31 30 32 36 35 31 30 30 29 28 27 25 24 24 24 26 28 30 32 33 34 35 36 36 36 37 39 38 37 38 39 39 38 38 37 36 37 40 41 39 38 37 38 40 38 32 30 29 26 24 23 22 23 23 21 20 20 20 20 20 21
26 26 27 30 33 35 34 31 29 28 27 25 24 23 23 24 24 25 26 27 28 28 30 31 31 32 33 34 35 34 33 33 34 32 29 27 27 29 33 39 43 43 42 42 43 44 41 37 34 31 28 25 23 21 21 21 21 20 20 21 20 20 21
22 20 19 21 24 26 27 28 27 27 27 26 25 23 21 19 17 16 16 17 19 22 24 26 28 29 30 31 32 32 30 29 28 26 23 22 25 27 28 34 42 45 46 48 48 45 42 39 36 34 30 25 22 20 20 21 23 22 21 21 20 19 20
20 20 18 16 14 18 23 25 26 25 24 22 19 14 9 6 3 2 2 5 9 13 17 20 23 25 26 27 29 29 27 26 26 25 24 23 23 22 23 27 36 43 46 48 50 48 46 39 34 35 34 27 23 22 22 25 26 24 21 22 22 23 22
13 15 17 16 14 19 23 19 15 12 11 10 10 11 12 12 11 10 9 7 4 4 7 12 16 19 21 23 25 25 25 26 27 27 26 22 19 21 24 27 33 39 41 43 47 49 46 39 35 36 33 28 25 24 25 29 28 24 22 23 24 24 23
10 10 12 13 14 17 17 16 18 15 14 17 20 20 19 18 16 14 12 9 6 3 2 5 8 11 14 17 20 22 23 25 27 27 26 22 20 21 23 24 29 34 35 38 42 43 41 37 34 33 30 29 27 25 28 30 27 22 22 22 23 23 24
11 10 10 11 12 15 19 28 32 29 26 26 25 23 22 20 18 15 12 10 7 4 2 3 5 6 9 12 15 18 20 23 24 24 23 21 20 19 17 17 19 21 25 31 35 36 36 33 30 30 30 30 27 27 30 31 26 24 23 23 23 24 24
12 12 13 16 21 25 30 35 37 33 29 27 25 23 21 20 19 17 14 11 8 6 5 4 3 3 5 8 10 13 16 18 19 20 20 19 16 15 15 14 15 18 22 28 31 32 33 32 31 32 32 30 27 27 28 27 23 24 25 25 25 24 25
21 23 27 30 31 33 35 37 36 32 28 25 23 22 19 17 18 17 13 10 7 6 5 5 4 3 4 6 8 10 13 14 14 15 17 17 16 16 17 16 18 22 24 26 28 29 30 31 33 34 32 28 25 24 23 20 17 18 20 22 22 23 25
30 32 34 34 34 34 35 35 32 29 26 23 21 20 18 17 17 16 12 9 7 6 5 5 5 5 5 6 8 10 11 12 13 15 19 19 18 19 20 19 22 23 20 21 24 26 27 30 31 30 28 25 23 22 19 14 10 10 12 14 17 21 24
35 37 35 32 30 29 31 31 28 26 24 21 20 19 17 17 17 15 12 9 8 7 6 4 6 7 6 7 8 9 11 12 14 19 24 23 20 20 20 19 20 19 16 18 22 24 24 26 25 23 21 19 18 16 13 9 8 8 10 12 16 20 21
33 35 34 32 29 26 26 25 22 20 20 20 19 18 17 16 16 14 12 9 8 6 4 3 6 6 6 8 8 9 11 14 17 22 25 23 20 19 18 17 17 17 17 17 19 20 20 20 18 17 16 14 12 11 9 9 9 10 11 14 17 18 18
30 31 30 29 27 23 20 17 16 15 16 17 15 13 11 9 9 9 8 7 7 6 4 5 8 9 9 10 9 10 14 17 20 22 24 22 20 19 18 16 15 16 17 17 16 16 15 15 16 15 13 12 10 8 8 9 11 12 14 16 17 17 15
25 25 23 21 20 18 15 14 13 12 11 11 9 6 5 3 3 5 5 5 7 8 7 9 12 13 12 11 11 13 17 20 22 23 24 23 22 21 19 16 14 14 16 17 17 16 14 15 16 15 12 11 10 9 10 13 14 15 15 17 17 16 14
20 20 20 19 19 18 16 14 13 11 9 8 7 7 6 4 4 4 3 4 5 7 9 11 13 14 11 11 13 16 19 22 25 25 25 25 23 20 17 15 14 15 16 17 17 17 17 18 17 15 12 11 11 13 15 17 16 15 14 16 16 14 12
15 15 16 16 16 15 15 13 12 10 8 6 6 6 5 3 2 1 3 4 4 6 10 11 11 10 9 11 14 16 19 23 26 27 27 26 23 19 15 13 14 17 19 20 19 20 20 19 16 14 12 11 13 15 15 14 14 14 15 15 14 12 12
14 12 12 12 12 12 12 11 10 8 8 6 5 4 3 2 1 1 3 4 4 5 8 10 9 9 10 12 14 16 19 23 26 27 27 26 23 20 18 16 16 18 19 21 21 20 18 15 12 10 10 10 11 12 12 12 13 13 14 13 11 11 12
13 11 11 10 10 10 10 9 8 8 8 8 7 5 4 3 2 1 1 3 4 5 8 10 9 9 10 13 15 17 19 22 25 27 27 25 22 21 21 20 18 17 19 20 20 19 16 12 9 9 9 9 9 10 11 12 11 11 12 11 10 11 13
11 10 9 8 8 8 8 7 6 6 6 6 6 6 5 5 4 3 1 3 4 6 8 8 8 10 11 12 15 17 19 21 24 25 25 23 22 23 23 22 19 19 20 19 18 17 14 10 8 9 10 9 9 10 11 10 10 10 11 10 10 12 14
9 8 7 5 5 5 5 5 4 4 4 4 5 6 5 4 4 3 2 3 4 6 7 9 10 9 9 9 12 14 16 18 20 21 21 21 22 23 23 20 19 20 21 19 18 16 12 9 9 10 10 10 10 11 11 10 11 11 11 11 12 14 15
8 7 5 4 5 5 5 4 3 2 3 4 5 5 4 4 4 4 4 5 6 8 10 11 10 8 6 6 10 12 13 15 16 17 18 20 21 22 21 18 17 17 19 19 18 15 11 10 10 10 10 10 11 11 12 12 12 12 12 12 14 14 14
Wind_Direction
211 216 220 223 226 227 228 228 228 227 227 228 228 228 227 227 226 225 224 224 225 226 226 227 229 230 231 232 233 234 235 237 236 235 232 231 232 233 236 239 242 246 245 245 249 253 259 262 261 256 250 244 235 231 234 237 240 241 243 247 249 252 247
208 211 214 220 224 226 227 228 228 227 227 227 228 228 228 227 226 225 223 223 224 224 225 226 227 229 230 231 232 233 234 236 235 233 230 228 228 230 233 236 240 244 243 243 244 247 251 254 252 250 249 245 239 235 236 238 241 242 242 243 244 248 247
207 208 211 218 222 224 226 226 226 226 226 226 225 226 227 226 225 224 222 222 222 223 225 226 226 228 229 231 232 232 233 234 233 230 227 225 224 226 229 233 238 243 243 240 240 243 247 250 249 247 249 249 245 241 240 240 243 243 243 243 243 246 250
212 211 213 218 221 222 225 225 225 225 224 225 224 224 225 225 223 223 223 222 222 223 223 223 225 227 229 230 231 232 232 233 232 229 227 224 223 225 229 232 236 240 241 238 238 242 247 248 247 246 248 250 247 245 243 244 245 245 244 243 243 244 248
214 211 212 217 218 220 223 225 226 225 224 224 223 223 224 225 224 224 224 224 223 224 222 223 227 228 229 230 232 233 233 233 232 229 225 223 224 226 229 231 235 238 240 239 240 244 247 247 247 248 249 247 246 246 245 244 244 245 245 244 245 247 249
208 209 212 215 216 219 222 224 226 225 224 223 222 222 222 224 225 225 225 225 224 224 223 226 229 230 231 232 232 233 233 233 231 227 225 224 224 227 230 233 237 241 242 241 244 249 250 250 249 250 251 248 245 245 243 242 242 243 244 245 248 251 253
210 211 213 214 216 218 221 222 223 224 225 224 223 222 222 223 224 224 225 225 224 225 225 227 229 230 232 232 232 233 232 230 229 226 224 224 227 231 236 240 243 248 250 247 250 256 256 256 256 256 254 249 245 244 242 242 242 241 242 245 250 253 255
218 217 215 216 218 219 220 221 221 222 224 224 224 224 223 224 224 224 225 225 226 227 227 228 229 230 231 232 233 234 233 231 229 227 227 228 233 237 241 245 250 256 257 253 256 261 259 260 261 259 257 251 246 246 245 244 241 239 238 243 251 256 259
229 225 221 219 219 219 219 220 220 220 222 223 224 224 224 225 226 225 225 226 227 228 228 229 229 230 232 234 235 236 236 235 232 232 234 235 238 239 237 237 244 254 257 254 260 268 267 267 265 263 261 256 251 249 249 247 240 237 239 245 253 259 263
235 227 221 218 217 218 218 219 220 220 221 223 223 224 225 226 228 228 227 227 228 229 230 231 231 233 235 236 238 239 240 238 233 233 236 238 239 236 233 231 233 242 249 249 255 265 269 270 269 267 264 259 255 253 251 249 243 240 244 249 256 263 265
237 225 217 214 214 215 216 219 220 220 221 222 222 223 225 227 229 230 231 230 230 231 233 234 235 236 237 238 239 241 241 237 232 229 230 237 240 236 233 232 231 234 237 236 241 249 255 265 268 267 265 261 257 255 253 251 249 247 248 252 257 263 265
231 220 215 212 212 213 215 218 220 220 221 222 223 223 225 228 229 230 232 234 234 235 236 237 238 238 239 239 239 241 241 237 231 227 226 232 240 239 233 231 230 231 228 227 234 239 244 258 266 264 263 261 256 254 254 254 254 255 254 253 256 260 262
227 219 216 212 211 212 214 217 220 221 221 222 224 224 226 229 230 231 234 236 237 239 240 240 241 241 241 240 239 242 243 239 232 229 227 229 235 239 235 232 231 227 222 223 230 237 249 260 261 259 260 259 255 251 251 253 256 258 257 255 255 257 258
225 218 215 212 213 213 214 217 218 220 222 223 224 226 228 230 231 234 237 239 240 241 242 244 245 245 244 242 242 243 244 241 235 231 230 229 232 236 235 235 230 220 214 220 222 236 260 262 255 251 253 254 253 249 247 250 253 255 256 255 255 256 257
219 214 212 211 213 214 215 217 217 219 222 223 224 227 229 230 233 236 240 242 243 243 245 247 249 249 248 246 244 243 243 242 238 233 231 229 230 232 231 230 226 214 211 219 226 244 256 255 249 247 248 248 249 246 244 246 251 255 255 255 256 258 257
215 213 213 212 213 215 217 216 216 219 221 223 225 227 229 231 234 238 241 243 244 246 248 249 251 253 250 246 244 243 243 243 241 237 234 230 228 229 229 228 228 226 225 227 233 246 248 244 243 247 245 244 245 243 241 245 250 254 256 256 258 259 258
215 216 218 214 213 217 217 215 216 219 221 223 226 228 231 234 237 241 245 246 247 248 248 249 252 253 250 245 244 244 244 244 243 240 236 232 227 226 227 226 229 238 241 234 234 240 239 236 241 244 240 239 241 239 241 247 251 254 260 262 261 262 261
220 222 222 215 214 218 218 214 214 217 219 221 224 229 233 236 239 242 245 245 246 248 249 250 253 253 249 246 245 245 244 244 244 243 237 231 225 224 228 229 229 236 241 235 234 239 239 239 241 239 235 235 237 238 243 248 253 258 265 268 266 266 263
225 227 227 220 217 218 215 211 212 216 217 218 220 223 227 231 236 242 246 250 253 255 255 256 256 254 251 248 246 245 245 245 246 241 229 222 227 234 238 236 233 234 236 234 234 236 235 237 239 236 231 229 230 237 244 249 255 263 270 272 272 271 267
235 236 236 229 224 221 216 212 213 216 217 217 218 221 227 234 241 251 260 266 268 265 262 260 258 255 253 250 247 246 246 245 242 230 216 223 239 244 238 231 229 232 232 231 231 229 225 228 234 235 230 225 225 230 236 244 253 264 270 271 270 269 266
243 243 246 246 234 220 216 215 218 221 222 222 221 219 213 204 203 239 297 295 283 274 268 264 261 259 257 253 249 247 244 241 237 227 223 232 238 232 225 224 227 231 231 229 229 226 220 220 228 232 227 222 220 221 224 234 246 257 262 261 261 262 263
249 249 251 254 232 211 209 209 211 218 215 198 175 147 127 116 103 87 71 54 21 322 285 272 266 264 261 256 251 247 244 242 241 238 235 234 232 228 231 233 233 233 233 231 230 227 221 219 228 232 226 216 215 218 224 233 244 253 254 253 258 261 263
223 229 239 241 224 206 188 154 136 137 139 134 128 119 107 96 85 76 68 61 53 39 294 267 263 262 260 256 252 249 248 247 247 245 241 241 243 240 237 235 232 232 232 232 231 228 223 222 230 234 225 215 216 223 230 236 246 256 256 255 261 263 264
192 202 214 207 187 170 150 134 129 130 129 122 114 105 93 84 77 69 59 49 35 10 317 268 261 260 257 257 256 253 252 251 249 248 248 248 246 236 225 222 224 225 227 228 227 225 221 222 229 230 222 218 222 229 234 239 253 266 263 259 262 264 268
151 150 150 146 141 136 131 127 124 122 120 113 105 96 88 78 69 61 52 42 24 354 324 294 273 264 258 257 258 256 254 252 250 250 247 238 224 208 198 199 206 213 220 223 223 221 220 224 229 226 220 221 228 234 239 248 262 269 263 260 266 272 277
125 127 128 127 126 125 123 121 119 118 115 108 99 91 83 73 61 54 50 41 21 356 326 294 266 243 241 245 250 253 251 248 245 239 226 209 193 188 191 199 212 221 224 224 221 220 220 222 223 220 220 228 238 246 253 259 265 268 266 267 272 278 282
117 120 123 122 120 120 121 121 118 116 111 101 92 85 76 65 58 54 53 42 20 3 335 288 242 220 222 230 239 246 245 239 230 213 198 188 185 191 200 213 227 229 223 214 211 213 215 216 217 220 226 236 246 255 262 265 267 272 275 275 276 278 282
118 117 116 113 112 116 124 124 117 109 103 92 84 79 71 64 63 59 48 32 16 2 342 285 223 209 217 223 232 242 239 229 215 197 190 191 197 205 214 226 230 222 209 204 209 214 217 218 218 222 230 239 246 253 258 260 259 263 272 280 280 278 278
110 110 107 105 106 112 120 118 105 95 91 86 83 79 71 66 64 56 42 26 9 356 333 261 214 204 211 217 223 233 230 221 208 198 198 206 216 224 231 233 223 211 205 207 212 216 218 219 218 220 227 236 243 250 251 246 249 261 272 272 269 267 268
95 98 98 98 99 100 100 93 81 75 77 81 81 76 68 61 51 46 46 29 360 341 303 244 222 214 214 212 211 218 220 213 207 206 211 219 228 235 237 229 215 211 214 219 223 225 222 217 213 212 219 228 233 238 237 239 249 258 258 253 250 250 255
82 84 82 80 81 80 76 72 68 61 63 74 83 82 78 69 30 33 35 3 332 311 280 247 225 214 208 205 206 212 213 209 209 215 220 225 233 241 240 231 225 226 228 232 237 237 225 211 205 206 211 220 230 239 242 245 251 250 245 244 244 244 250
74 72 69 66 66 64 60 57 54 51 55 72 85 89 86 69 37 26 357 313 290 267 247 228 215 208 204 205 209 211 211 211 214 220 223 227 237 246 243 236 243 250 247 241 235 224 210 203 200 201 207 220 236 244 245 248 250 246 245 245 243 244 259
75 67 62 62 62 62 58 52 49 53 64 74 82 91 94 80 41 340 271 256 239 229 224 217 212 211 209 208 209 211 216 218 219 220 223 227 236 243 237 235 252 261 253 239 222 207 198 194 194 200 212 224 232 237 244 252 252 246 244 243 242 253 274
76 71 66 64 64 66 65 60 57 59 64 70 80 93 102 114 137 230 243 231 212 209 216 219 222 222 216 211 211 215 221 222 222 224 225 229 238 241 232 233 251 254 240 222 209 198 192 191 197 214 225 227 233 243 253 258 251 241 237 237 246 268 282
73 71 70 67 65 63 59 56 56 59 60 64 72 79 79 79 78 67 241 229 215 209 216 223 224 217 210 209 212 219 223 224 227 228 228 232 242 241 233 236 242 231 213 204 198 194 193 195 206 222 222 226 245 256 255 250 242 232 231 238 256 277 285
72 71 68 63 61 59 52 48 54 60 63 70 80 85 83 76 72 73 137 217 218 212 212 209 199 192 197 206 214 220 223 225 227 230 232 238 241 237 234 237 229 208 199 198 195 194 199 208 219 225 226 233 241 242 239 236 230 226 232 246 267 281 284
71 74 75 74 79 77 68 67 72 73 80 97 105 105 97 89 88 94 130 191 195 190 185 178 172 174 187 203 211 215 219 224 228 231 231 232 231 229 230 229 215 203 202 203 200 203 216 229 229 227 230 232 231 232 234 232 226 228 239 256 273 279 281
70 74 80 92 106 106 98 93 93 109 137 140 132 121 106 100 109 124 141 156 163 165 166 166 165 164 172 196 206 208 211 216 221 221 219 219 223 226 224 219 214 213 212 212 214 219 225 229 228 228 230 234 237 240 239 233 230 236 246 259 273 279 279